Theta_e
338 337 345 345 348 349 350 350 350 350 350 350 350 350 349 349 349 349 348 348 348 348 348 349 349 349 349 350 349 350 350 349 349 348 349 349 349 349 349 348 348 348 348 348 347 351 351 350 350 350 350 350 350 349 348 346 343 341 340 340 340 340 340 341 342 342 341 343 345 348 351 352 353 353 353 351 352 352 350 349 351 347 349 348 350
335 339 345 347 348 350 349 351 351 350 350 350 350 349 349 349 348 348 348 348 348 348 348 348 348 349 349 349 349 349 349 349 349 349 349 348 348 348 348 348 348 347 348 348 350 350 350 349 349 349 349 348 347 347 345 343 341 339 338 337 338 338 338 338 341 340 340 339 340 342 345 350 351 352 351 350 350 350 349 349 347 346 347 348 350
338 340 345 348 347 350 350 350 350 351 351 350 350 349 349 349 349 349 348 348 348 348 348 349 349 349 349 350 349 349 349 348 348 349 349 348 347 347 347 347 347 347 348 349 349 349 348 348 348 347 346 346 345 344 343 342 339 337 336 335 336 336 335 336 337 337 337 337 338 341 343 346 350 350 348 349 349 350 349 349 348 347 348 348 348
337 341 344 347 345 348 350 350 350 350 350 350 350 349 349 349 349 349 348 348 349 348 348 348 348 349 349 349 349 349 349 349 349 348 348 348 347 347 347 347 348 348 347 348 348 348 347 347 346 345 344 343 343 342 341 339 338 336 334 333 334 334 334 335 334 335 334 335 336 339 347 349 349 349 349 349 350 349 349 349 349 349 349 349 349
335 342 344 348 348 348 349 350 350 350 350 350 350 350 349 349 349 349 349 349 348 348 348 347 348 348 349 348 349 349 349 348 348 348 347 346 345 346 346 347 347 347 347 347 347 347 346 345 344 344 343 341 340 339 338 337 336 334 332 331 331 332 333 333 333 332 332 332 335 339 346 347 349 348 348 349 349 349 349 349 348 349 349 349 349
337 342 344 346 348 349 347 349 350 349 350 350 350 350 350 349 349 348 349 349 348 347 348 348 348 348 349 349 349 348 348 347 347 346 345 345 344 345 346 346 347 346 346 346 346 345 344 343 342 342 341 339 338 337 336 335 334 332 330 329 330 331 331 333 331 329 328 329 333 343 344 346 347 348 348 348 348 347 348 347 347 347 348 348 349
339 342 344 346 347 345 345 348 349 349 349 350 349 349 349 349 348 348 348 348 347 348 348 348 348 348 349 349 348 348 347 346 346 345 344 344 344 345 346 346 346 346 345 345 344 343 342 341 341 340 339 337 336 336 335 334 332 331 329 328 329 330 329 329 328 326 327 332 336 339 341 345 347 348 347 347 348 348 347 347 347 347 345 347 347
340 343 344 346 347 345 344 348 349 349 349 349 349 349 349 349 348 348 348 347 348 348 348 348 348 348 349 349 348 347 346 345 345 344 343 342 343 344 344 345 345 344 344 343 342 341 340 339 339 338 337 336 335 334 333 332 331 329 328 327 328 328 327 326 325 324 328 332 337 338 340 343 345 347 346 346 347 347 347 347 346 347 346 345 345
338 340 343 345 345 342 344 345 349 349 348 348 349 349 348 348 348 348 348 348 348 348 348 348 348 348 348 348 347 346 345 344 344 343 342 340 339 341 342 341 342 342 342 341 340 339 339 338 337 336 335 334 333 332 331 330 329 327 326 325 325 325 325 323 323 324 329 333 335 337 339 341 343 344 346 346 346 347 347 346 347 346 345 345 345
338 339 342 344 345 341 344 345 349 348 348 348 349 348 348 348 348 348 348 348 348 348 348 347 347 347 347 347 346 345 344 343 342 341 339 338 338 337 339 340 341 340 340 339 338 337 337 336 336 335 334 333 330 329 327 326 326 325 324 324 324 323 323 321 321 327 329 332 334 336 337 336 342 342 345 347 347 347 345 341 344 346 346 345 345
338 339 342 343 346 340 344 347 348 348 348 348 349 348 348 348 348 348 348 348 348 348 347 347 347 347 346 346 345 344 343 341 341 340 339 337 337 337 338 339 338 339 338 337 336 336 335 335 334 333 332 330 328 326 325 324 324 324 322 322 322 322 322 320 323 326 329 331 333 335 336 336 340 340 342 343 346 345 343 343 344 345 345 344 344
337 339 340 341 339 338 343 346 347 348 348 348 347 348 348 348 348 348 348 348 348 347 348 347 347 346 345 345 343 342 341 341 340 339 338 336 336 336 338 337 337 336 336 335 335 334 334 334 333 331 329 327 325 324 324 323 322 322 322 321 320 320 318 318 324 325 329 330 332 334 337 337 337 336 338 339 340 342 343 344 344 344 344 343 343
336 337 339 342 345 337 340 345 345 347 348 348 347 347 348 348 348 348 348 347 348 348 348 346 346 345 344 344 343 340 339 338 338 335 333 333 334 334 336 336 335 335 334 334 334 334 333 332 331 329 327 326 324 324 323 322 321 320 320 319 319 318 317 318 322 325 327 330 331 334 335 337 338 336 337 337 338 339 339 339 340 340 340 340 340
336 336 339 342 343 337 335 339 343 346 347 347 347 347 348 348 348 347 348 347 347 346 345 346 345 344 343 342 341 340 338 336 333 333 332 332 333 334 334 334 335 334 333 333 333 332 332 331 329 328 326 325 324 323 322 321 320 319 318 318 317 315 313 318 322 324 326 328 329 332 334 334 335 335 335 336 336 337 337 337 337 338 338 338 338
335 338 339 341 342 344 332 335 338 340 343 346 345 346 347 347 346 346 346 346 345 346 345 346 345 342 341 340 339 338 337 334 333 333 332 331 332 332 331 332 331 332 332 332 332 332 331 329 328 327 326 324 323 322 321 320 319 318 317 316 316 313 314 317 321 323 324 326 328 331 333 333 333 333 333 334 335 335 334 335 335 336 336 335 336
337 338 339 340 341 343 342 333 333 334 338 340 342 343 344 344 345 345 345 345 345 343 343 344 343 343 341 340 337 338 336 333 333 332 332 331 331 332 332 332 331 331 331 331 331 330 329 329 327 326 325 324 323 322 320 319 318 316 315 314 313 311 311 316 319 321 322 324 327 329 331 331 331 331 332 332 333 333 333 332 333 334 334 333 333
335 336 337 339 341 341 342 342 338 329 330 332 336 337 339 341 342 343 343 343 342 343 343 343 342 342 340 339 339 338 337 334 332 332 331 331 331 330 331 331 331 330 331 331 331 330 329 328 326 324 324 323 322 321 319 318 317 315 314 313 311 310 310 313 317 319 319 322 325 328 329 331 330 330 330 331 331 331 331 331 332 332 332 332 332
334 335 335 338 340 340 339 341 341 339 341 334 328 332 335 338 340 340 340 340 340 341 342 341 340 339 337 338 335 335 335 334 332 331 330 330 329 329 329 329 330 330 331 330 330 329 327 326 325 324 323 322 320 319 318 317 315 314 312 310 309 308 308 312 315 316 318 321 324 327 328 327 328 329 329 329 330 330 330 330 330 331 331 331 331
332 333 334 336 337 339 338 340 340 340 340 339 339 338 329 333 336 337 337 338 338 338 338 337 336 336 336 334 331 329 329 329 331 331 330 330 330 328 329 329 330 330 330 329 329 328 327 326 325 324 322 321 319 318 316 315 313 311 309 307 305 305 307 310 313 315 317 319 322 324 325 325 327 328 328 328 327 329 329 329 329 329 330 330 330
331 332 333 335 336 337 338 338 338 339 339 339 339 338 331 327 331 333 334 335 336 336 334 332 330 330 330 328 325 327 325 327 323 327 326 329 328 326 328 330 329 329 329 329 328 327 326 325 324 322 321 320 318 316 314 313 311 310 308 305 304 306 307 307 311 313 314 316 321 322 322 324 326 327 327 326 326 327 327 327 328 329 329 329 329
328 330 332 333 335 335 336 336 337 338 338 338 338 339 337 326 327 327 329 331 333 332 332 327 323 322 324 320 320 330 331 330 329 329 321 328 322 321 326 329 328 329 328 327 327 326 325 324 322 321 320 318 315 314 312 311 310 308 306 303 304 305 305 307 308 309 313 315 318 320 320 323 325 326 325 325 325 325 325 326 327 327 327 328 328
325 326 330 331 332 333 335 335 335 336 337 337 338 338 339 331 336 338 337 334 328 326 332 335 325 334 322 327 331 330 330 329 329 323 327 327 325 319 324 330 328 327 326 326 326 325 325 324 323 321 319 316 312 312 309 307 306 305 303 302 305 304 305 306 306 308 312 314 317 317 319 322 324 324 325 324 323 325 325 325 326 326 327 327 327
323 325 327 328 330 331 333 333 334 335 336 336 336 336 336 335 336 337 336 329 332 334 335 333 334 333 332 331 329 330 329 329 327 326 326 320 324 318 323 327 327 326 325 324 324 324 323 323 320 317 314 308 309 308 306 304 302 301 303 306 304 304 305 305 305 306 309 313 315 314 318 321 323 324 325 324 324 325 325 325 326 326 326 326 326
324 326 327 329 329 328 330 331 333 334 334 334 335 334 334 335 335 335 335 334 335 334 335 334 333 334 332 331 329 329 328 327 317 315 318 325 324 317 321 323 323 322 322 322 322 321 320 318 314 310 306 308 306 304 304 304 303 304 304 303 303 305 305 304 304 305 307 311 314 313 317 320 322 323 324 324 324 324 324 324 324 324 325 325 325
325 327 327 327 327 328 329 330 331 332 333 332 333 332 333 333 334 334 334 333 333 333 333 334 333 333 331 329 329 326 327 325 324 323 324 323 323 324 325 325 324 323 318 321 320 319 317 314 308 304 304 306 305 304 304 303 303 303 303 302 302 304 303 303 303 303 306 310 312 311 314 318 321 322 323 324 324 323 323 324 323 323 324 324 323
325 324 325 327 327 328 328 328 329 330 331 331 331 332 331 332 332 333 333 332 332 332 332 332 331 330 329 328 325 325 325 323 323 323 323 322 322 322 323 323 322 322 320 321 319 317 313 308 305 304 303 304 304 304 304 303 303 302 302 303 302 303 303 302 302 303 304 308 311 310 313 317 320 321 322 323 323 323 323 323 323 324 323 322 322
322 322 325 326 327 327 327 329 328 328 328 330 331 331 330 331 332 332 332 331 331 331 330 330 329 328 327 325 324 323 322 321 321 321 321 321 321 322 322 321 321 319 318 316 314 311 306 304 303 304 303 303 303 304 303 304 304 303 302 303 302 302 302 302 302 302 304 306 309 308 311 314 318 320 321 322 322 323 322 322 323 322 322 322 322
321 321 323 324 325 326 327 327 327 327 327 329 329 329 330 330 331 330 330 330 330 329 329 328 327 324 324 323 323 323 321 319 319 319 319 319 319 320 320 318 318 316 315 313 310 306 304 303 304 304 303 303 302 302 301 302 302 303 302 302 302 302 302 301 302 303 303 305 308 308 310 313 316 319 320 321 322 321 322 322 322 322 322 321 321
318 320 322 323 325 325 326 325 326 326 327 328 327 328 329 329 330 329 329 326 329 329 329 328 324 323 322 321 321 320 319 318 317 317 317 317 318 317 316 316 315 312 311 309 307 304 303 303 302 302 302 301 301 302 301 301 301 302 301 302 302 301 302 302 302 302 303 303 306 307 308 312 315 316 317 319 320 321 321 321 321 321 321 321 320
316 319 321 322 323 324 324 324 325 326 327 327 326 327 327 327 328 328 328 327 328 329 328 325 325 322 319 319 319 320 318 317 316 315 315 315 315 315 315 314 312 310 308 307 304 303 302 302 302 302 302 302 301 301 300 301 300 301 301 301 301 301 301 301 302 302 303 303 305 307 305 309 313 314 316 318 319 320 320 321 321 321 321 321 320
316 316 318 320 322 323 323 324 325 325 326 325 326 326 326 326 327 328 328 327 327 327 326 325 324 321 319 317 317 318 317 316 315 314 313 313 313 312 312 311 310 307 306 305 303 303 303 302 302 300 300 300 300 300 300 300 300 300 300 301 300 300 301 301 301 302 302 302 303 306 308 307 310 313 315 316 317 318 319 320 320 319 320 320 320
314 315 317 319 320 321 322 323 324 324 324 324 324 325 325 326 327 327 326 327 327 326 325 324 320 320 318 316 316 315 315 314 314 313 312 311 310 310 310 309 309 306 305 304 302 303 302 304 304 303 302 302 300 299 300 299 299 299 300 300 300 300 300 301 301 301 301 302 302 304 307 309 307 309 312 314 315 316 317 318 319 319 319 319 319
315 316 317 318 318 319 320 321 322 323 322 323 324 324 325 325 325 325 326 326 325 325 324 322 321 320 317 315 314 314 313 313 312 311 310 310 309 308 308 307 307 305 303 303 303 302 302 300 301 301 300 300 299 299 300 300 299 298 299 299 299 300 300 300 300 300 300 301 301 301 303 307 309 306 306 309 312 314 315 316 317 318 318 317 317
315 315 315 315 316 318 319 321 321 321 322 323 323 323 324 324 324 325 325 324 323 323 322 322 320 318 316 315 313 312 311 311 311 310 309 308 307 307 306 306 305 304 302 302 300 300 299 300 299 298 298 298 298 297 296 298 298 298 299 299 299 299 300 300 299 300 300 300 301 301 301 302 304 307 306 303 304 307 311 312 313 314 314 315 315
312 313 314 314 314 316 318 318 319 320 321 321 321 322 323 323 323 323 324 322 323 322 321 321 319 317 316 314 312 311 310 310 310 308 307 306 305 305 304 304 303 302 301 300 299 300 300 300 298 297 297 297 298 298 298 297 297 297 298 298 298 299 299 299 299 299 299 300 300 301 300 300 301 303 304 302 301 301 305 308 309 310 311 312 312
310 312 313 314 313 314 316 316 318 319 320 320 321 321 322 322 322 318 322 322 321 320 320 319 318 316 314 313 312 310 309 309 308 307 306 305 304 303 302 303 302 301 300 300 300 299 300 300 299 299 296 297 297 296 298 298 298 298 298 298 298 298 298 298 298 298 299 299 299 300 299 299 299 299 300 300 298 298 300 303 305 307 308 309 310
310 311 311 313 312 312 312 314 315 317 318 319 320 321 321 321 320 320 321 320 319 318 318 318 317 315 313 312 311 309 308 307 307 306 305 304 303 302 301 302 301 300 300 300 299 299 300 300 299 299 298 296 296 296 296 297 297 297 297 298 298 298 298 297 298 298 299 299 299 299 299 298 297 298 298 297 297 296 296 298 300 301 303 306 308
310 310 311 311 312 312 312 313 314 316 317 318 319 319 319 319 319 319 318 318 318 318 317 316 315 314 312 310 310 309 307 307 306 305 304 303 303 302 301 301 300 300 300 299 298 300 300 299 297 298 298 297 295 296 295 296 297 296 296 297 297 297 298 297 297 296 297 297 298 298 297 297 297 297 296 297 296 296 295 295 295 296 298 301 305
308 308 309 310 311 312 311 311 312 314 315 317 318 318 318 318 318 317 316 316 316 316 315 314 314 313 311 310 308 308 306 306 305 304 303 302 301 301 300 300 299 299 299 298 299 299 299 298 297 296 297 297 296 296 296 297 297 297 296 295 296 296 297 297 296 297 297 297 297 297 298 297 297 296 296 296 295 295 296 296 295 296 296 297 300
307 306 307 309 310 311 311 310 310 311 313 314 316 315 315 314 313 314 313 313 314 313 313 312 312 311 311 309 308 307 306 305 304 303 302 301 300 300 299 299 299 299 298 298 297 297 298 298 297 296 295 296 298 298 297 295 295 295 294 294 295 295 295 295 296 296 297 297 295 295 295 296 295 295 295 295 295 295 295 295 294 294 294 294 296
305 305 305 307 308 308 309 308 309 309 310 311 312 313 312 312 312 312 311 312 311 311 311 311 310 310 309 308 307 306 305 304 303 303 301 300 300 299 299 298 298 298 298 298 299 298 298 298 297 296 295 293 294 296 297 297 294 293 294 293 293 294 293 294 294 295 295 295 295 295 294 294 295 294 294 295 294 294 294 294 294 294 294 295 294
306 304 304 305 306 307 308 309 308 308 308 309 311 312 313 312 311 311 311 311 310 308 308 309 308 308 307 307 307 306 304 304 302 302 301 301 299 298 298 297 297 297 298 299 299 298 298 297 297 295 296 294 293 295 296 295 293 292 290 290 291 292 292 292 292 293 294 295 295 295 294 294 293 293 293 293 294 293 294 294 294 294 294 294 294
304 304 304 304 304 306 307 308 308 307 307 308 309 310 312 312 311 311 310 309 309 309 309 308 307 306 306 306 306 305 304 303 302 301 300 300 300 298 297 297 297 297 297 298 298 297 297 297 296 294 293 295 294 296 296 297 293 295 295 292 289 289 290 290 292 292 293 294 294 294 294 293 292 293 293 293 293 292 293 293 293 293 293 294 294
304 304 303 303 303 304 305 306 307 307 307 307 307 310 310 311 310 309 308 309 307 307 306 306 305 305 304 305 304 304 304 303 302 301 300 300 300 298 297 296 296 297 297 296 297 297 296 296 295 295 294 292 294 292 296 297 298 296 291 292 292 292 289 289 289 290 292 293 293 293 292 292 292 293 293 292 292 292 292 293 292 293 293 293 294
302 301 301 301 301 303 304 305 306 306 306 306 306 308 307 307 307 306 306 305 304 303 303 303 303 303 303 302 302 303 303 302 302 301 300 300 300 299 297 297 296 297 297 296 296 296 296 296 295 295 294 292 292 292 293 296 296 299 295 292 289 289 292 294 290 290 290 290 292 292 292 292 292 292 292 292 292 292 292 292 292 292 293 293 293
299 299 301 301 301 302 303 304 305 305 305 305 306 305 305 305 304 303 301 301 301 301 300 301 301 301 301 302 302 301 302 302 302 301 300 299 299 299 298 297 296 296 296 296 297 297 296 295 295 295 294 295 294 293 291 294 295 297 296 297 299 294 294 293 291 288 290 291 291 291 292 292 292 292 292 292 292 292 291 291 292 292 292 293 292
297 299 300 301 301 301 302 303 303 304 305 304 305 304 304 304 303 303 303 302 301 302 302 302 302 301 302 301 300 301 301 301 301 301 300 299 299 299 299 297 296 296 296 296 295 296 296 296 296 295 295 295 296 293 292 291 293 292 294 295 296 291 299 293 290 293 287 289 291 290 290 291 291 291 292 292 292 292 291 291 291 291 292 292 292
297 298 299 299 300 300 300 301 302 302 303 303 303 304 303 303 303 302 302 302 302 302 302 301 302 301 300 300 300 299 300 300 300 300 300 299 299 299 298 298 296 296 295 295 295 296 296 297 296 296 296 295 297 294 294 293 290 291 293 292 291 293 295 296 301 295 294 289 288 290 291 291 291 291 291 292 291 291 291 290 291 291 291 291 292
296 296 297 298 299 300 300 301 301 301 302 302 302 303 303 303 303 302 301 302 303 303 303 302 300 300 299 299 299 299 299 299 299 299 299 299 298 298 298 297 296 295 295 295 295 296 296 295 295 294 295 294 295 296 296 294 292 292 292 291 293 292 293 295 294 296 294 293 291 288 288 290 290 290 291 291 291 291 290 290 290 291 291 291 291
296 296 296 297 298 298 298 299 299 300 300 301 301 302 302 302 301 302 301 301 302 301 302 300 300 300 298 298 298 298 297 297 298 299 299 298 298 298 298 297 296 296 294 294 295 296 296 296 295 294 294 295 295 295 296 296 295 295 294 294 291 291 292 291 292 293 293 296 293 291 291 288 286 288 290 290 290 290 290 290 289 290 290 290 291
295 295 295 295 296 296 297 297 297 298 299 299 300 300 301 301 301 301 301 301 302 301 300 299 299 299 298 298 298 297 297 297 297 297 298 298 298 298 297 297 297 296 294 294 294 294 295 295 295 295 294 294 294 294 296 297 296 296 295 294 292 292 291 291 291 292 292 290 290 293 293 291 291 289 289 291 290 290 289 290 289 289 290 290 291
Wind_Speed
11 8 10 15 14 15 17 17 15 14 14 14 13 12 13 13 12 12 11 11 10 9 9 9 9 9 8 8 9 9 9 10 9 9 8 8 7 7 7 6 6 6 6 6 7 9 9 9 10 10 11 12 13 13 12 12 12 11 11 11 11 11 11 10 10 10 9 10 10 10 10 11 10 11 11 11 10 9 7 6 6 7 7 9 11
16 11 9 14 14 15 17 17 16 16 15 14 13 13 12 12 12 12 12 12 11 10 10 9 9 9 9 9 9 9 10 10 10 9 8 8 7 7 7 6 6 6 7 7 8 9 10 10 10 11 11 11 11 11 12 11 11 11 11 10 10 10 10 10 10 10 9 9 8 9 9 11 10 11 11 10 10 9 8 6 9 5 7 10 11
13 11 10 14 14 13 16 17 17 16 16 15 14 13 13 12 11 11 11 11 11 11 11 11 10 10 9 10 10 10 10 10 10 10 9 8 7 7 7 6 6 7 7 8 9 10 10 10 9 10 10 10 11 11 10 10 10 10 10 10 9 9 9 9 9 9 9 8 7 3 7 9 9 10 10 10 10 10 9 9 8 8 8 10 9
12 10 10 12 14 13 14 15 15 15 15 15 14 13 12 12 12 11 11 11 11 11 11 11 11 11 11 10 10 11 10 11 11 10 10 9 8 7 6 6 6 6 7 9 10 10 10 10 9 10 10 10 11 10 9 10 10 9 9 9 9 8 8 8 8 8 7 7 6 4 5 6 7 7 10 10 10 10 8 8 9 11 11 11 12
11 10 10 11 14 12 14 14 15 16 15 15 14 14 13 12 12 11 10 11 11 10 11 11 12 11 11 11 11 11 11 11 12 11 9 8 8 7 7 8 8 8 8 10 10 10 9 9 9 10 11 10 10 10 9 9 9 9 9 8 8 8 7 7 7 6 6 5 5 3 5 5 6 6 8 10 10 9 7 8 10 10 9 11 12
10 9 10 11 13 15 12 13 16 16 15 15 14 14 13 13 12 11 10 10 10 10 11 11 11 11 11 11 12 11 11 11 11 10 9 8 7 7 8 8 9 9 10 10 9 9 8 8 9 10 10 10 10 9 9 9 9 8 8 8 7 7 7 7 6 5 3 2 3 2 4 4 5 5 6 8 8 8 7 9 10 9 9 8 10
10 8 10 11 11 15 12 12 17 17 16 15 15 14 14 13 13 12 11 10 10 10 10 11 11 11 11 11 11 11 11 10 10 9 8 7 7 7 7 8 10 9 9 9 9 8 7 7 9 10 10 9 10 10 9 9 9 8 8 7 7 7 7 6 6 5 4 4 2 2 3 3 4 4 6 5 6 7 8 9 9 9 10 9 8
10 7 10 10 11 12 11 12 14 16 16 15 14 14 13 13 12 13 11 11 11 11 11 12 12 12 12 12 11 11 11 9 9 8 8 6 6 8 8 8 8 9 8 8 6 5 6 6 8 9 9 9 9 10 10 9 9 9 8 8 8 7 7 6 5 4 5 1 2 2 2 3 3 3 7 5 6 7 8 8 8 9 9 9 6
10 10 10 11 11 12 11 11 12 14 15 15 14 13 13 14 12 12 13 12 12 12 12 12 12 13 12 12 12 11 9 9 9 8 7 6 2 4 7 5 5 5 6 6 6 6 5 5 8 9 9 10 10 10 10 9 9 9 8 8 8 8 7 6 5 6 1 3 2 3 2 2 2 3 6 5 6 7 7 4 9 9 9 6 6
10 10 10 10 11 11 12 11 12 13 15 15 12 13 13 13 13 13 13 13 13 13 13 13 13 13 12 12 11 11 9 8 7 7 6 5 4 1 5 7 7 5 6 5 5 5 5 6 8 9 10 10 10 10 10 9 10 9 9 9 9 8 7 5 3 4 3 3 4 5 4 7 3 3 9 8 8 8 7 9 9 9 7 5 8
11 10 9 10 12 11 12 14 12 12 14 13 13 14 14 13 13 13 13 14 14 14 13 13 13 13 13 13 12 10 10 9 8 7 7 6 6 5 5 5 5 6 6 5 5 5 5 7 9 10 10 10 10 10 10 10 10 10 10 9 9 8 7 5 3 4 4 4 4 4 4 4 2 5 8 8 11 9 8 7 6 7 8 9 10
11 10 9 9 9 11 11 13 12 13 12 12 13 13 13 14 14 14 14 14 13 13 13 13 13 14 12 11 10 10 10 10 9 9 9 7 8 8 7 6 5 5 6 6 7 6 7 8 9 10 10 10 10 10 10 10 10 10 10 9 9 8 7 7 3 4 4 5 5 5 5 4 3 6 7 7 7 9 9 8 9 9 10 11 12
12 11 10 11 12 9 10 11 12 12 12 12 14 14 13 14 14 14 13 13 14 14 14 13 14 12 12 12 12 10 9 8 11 9 8 8 9 9 7 7 6 7 7 7 8 8 8 9 9 10 10 10 10 10 10 10 10 10 9 9 8 7 7 6 4 4 4 5 4 5 5 5 6 5 6 6 7 6 6 6 6 7 8 8 9
12 12 11 12 13 9 9 9 11 12 12 12 14 13 14 14 14 15 14 13 13 13 12 13 12 10 11 10 10 10 10 10 7 7 9 9 10 9 9 8 8 8 8 9 9 9 9 9 9 10 10 10 10 10 10 10 10 10 9 9 8 6 3 4 4 4 4 5 5 5 5 5 5 7 6 6 6 6 7 5 4 5 9 8 7
11 13 12 12 12 12 9 8 9 10 11 12 13 12 12 14 13 11 13 11 11 11 12 11 9 12 9 10 10 10 10 9 8 9 10 10 9 9 9 9 9 9 9 9 9 10 9 9 10 10 10 10 10 10 10 10 10 10 10 9 8 6 6 3 2 4 4 4 4 5 5 6 6 7 5 5 6 5 5 4 4 6 8 8 7
10 12 13 12 13 14 10 9 9 9 9 9 11 10 11 11 11 12 12 12 11 11 10 10 10 11 11 10 11 10 11 10 10 10 10 10 10 9 9 9 9 9 9 10 10 10 10 10 10 10 10 10 10 10 10 10 10 10 10 9 9 8 7 5 3 3 3 3 3 4 5 6 8 5 5 5 4 4 4 3 6 7 7 7 6
11 12 14 14 13 15 15 13 10 9 8 8 9 9 10 10 10 10 10 11 11 11 12 11 11 10 9 9 9 7 7 9 10 11 11 11 11 10 10 10 10 9 10 10 10 10 10 10 10 10 10 10 10 10 11 11 11 11 10 9 9 8 7 6 3 3 4 4 3 3 5 5 6 5 4 4 3 3 3 3 6 6 6 6 6
12 12 14 15 15 14 15 15 13 10 11 9 9 10 9 10 11 11 10 11 9 10 11 11 10 9 8 6 6 6 8 8 9 11 11 11 10 10 10 10 10 10 10 11 10 11 11 11 11 11 11 11 11 11 11 11 11 10 10 9 9 8 6 5 4 4 4 4 3 4 4 8 5 5 4 3 3 3 3 5 6 6 6 6 6
12 14 14 15 16 14 14 14 15 14 12 11 11 10 11 10 11 11 11 11 10 10 10 10 8 7 7 6 7 9 8 8 7 9 10 9 8 7 9 11 11 11 11 11 11 11 11 11 11 11 11 12 12 12 12 11 11 10 10 9 7 5 4 3 4 4 3 3 3 4 6 8 4 4 4 3 3 5 5 5 5 6 6 6 6
11 13 14 15 15 15 14 13 13 14 14 11 11 12 11 11 11 11 11 11 10 10 10 9 8 8 7 8 9 8 8 7 6 8 8 8 7 8 8 9 11 11 11 11 11 11 11 11 11 11 11 11 12 11 11 11 10 10 9 7 4 2 3 4 4 4 3 4 3 4 8 8 6 4 4 4 4 5 5 5 5 6 6 6 6
9 13 14 15 15 16 16 14 14 12 12 11 10 10 10 10 8 10 12 11 9 10 10 10 8 7 8 8 9 9 8 8 8 9 7 8 8 6 7 9 11 11 11 11 11 11 11 11 11 11 11 12 12 12 10 10 9 8 7 5 1 3 4 4 3 3 3 3 4 5 9 7 6 5 5 4 5 5 4 5 5 6 6 7 7
11 11 14 16 16 14 13 16 14 13 12 9 7 7 7 10 13 11 10 10 9 9 9 10 9 9 9 8 8 9 8 8 9 11 9 9 7 6 6 9 12 11 11 11 11 11 11 11 11 11 11 12 10 6 6 8 8 7 6 1 2 4 3 3 3 3 3 3 4 6 7 6 5 4 4 4 4 5 5 5 5 6 7 7 7
11 11 12 17 15 16 18 18 15 12 13 11 7 8 10 10 12 12 11 11 11 10 11 11 11 11 10 9 10 9 10 8 8 7 6 8 9 7 6 8 10 9 11 11 11 11 11 11 10 10 10 8 4 3 4 4 4 4 2 1 3 3 3 3 3 3 3 3 3 8 6 5 4 3 4 4 4 5 5 5 5 6 6 7 7
13 11 11 11 14 14 17 18 15 13 12 10 9 10 10 11 10 13 13 13 12 10 13 11 11 11 10 9 9 9 9 8 7 8 6 8 6 6 6 7 8 8 9 9 10 10 11 11 10 10 7 4 3 3 4 3 3 2 2 2 3 3 2 2 3 2 3 3 3 7 6 4 3 2 3 4 4 5 5 5 5 6 6 7 7
10 9 9 11 16 17 14 15 14 15 13 11 10 11 11 10 10 12 13 12 13 12 13 10 9 9 10 9 10 7 8 8 8 7 8 8 8 9 8 8 8 9 10 8 8 8 8 6 6 5 4 4 4 3 3 3 3 3 2 2 3 3 3 2 2 2 2 2 3 7 7 3 3 2 3 4 4 5 5 5 5 6 6 6 7
8 9 12 12 15 16 15 13 15 17 14 13 12 11 11 11 11 11 12 12 14 13 11 9 8 9 9 10 8 8 9 8 9 9 9 9 9 9 9 9 9 8 9 7 6 7 5 6 6 5 4 4 3 3 3 3 3 3 3 3 2 2 2 2 2 2 2 2 3 7 7 4 3 2 3 4 4 5 6 6 6 6 6 6 6
9 11 11 11 12 14 16 14 13 14 18 18 13 11 11 11 11 11 12 13 12 11 10 9 9 10 10 9 9 9 10 9 9 10 10 9 9 9 9 8 8 8 8 6 6 6 5 6 5 5 4 4 3 3 3 2 3 3 3 3 2 2 2 2 2 2 2 2 3 7 6 5 3 2 3 4 4 4 5 5 6 6 6 6 7
9 11 11 11 12 17 17 16 14 15 16 18 15 12 11 12 12 11 12 12 10 11 11 10 9 9 10 10 10 10 10 10 10 10 10 9 10 9 8 8 7 7 6 6 6 5 5 5 5 5 5 4 4 4 3 3 3 3 3 3 2 2 2 2 2 2 2 2 3 4 7 4 4 2 3 3 4 4 4 4 5 6 6 6 7
12 13 11 12 14 13 16 17 16 17 14 15 15 13 12 12 12 12 13 12 11 11 11 10 9 9 10 10 11 11 11 10 10 10 9 10 9 8 8 8 7 6 6 6 6 6 5 5 5 6 5 5 5 4 3 3 3 3 3 3 2 2 2 2 2 2 2 2 2 3 7 6 4 3 3 3 3 4 4 5 5 5 6 6 6
16 11 11 12 11 14 17 19 18 15 14 14 13 15 13 13 13 13 12 12 12 11 11 9 10 10 10 11 11 11 11 11 11 10 10 11 9 9 8 8 7 6 7 6 6 6 6 6 5 5 5 5 4 4 4 3 3 3 2 3 2 3 2 2 2 2 2 2 2 4 6 8 6 4 4 4 5 5 5 5 5 5 5 6 6
11 12 12 10 10 12 14 15 16 14 13 14 13 14 13 13 13 12 12 12 12 11 10 10 10 10 10 11 11 12 11 11 10 11 10 10 9 9 9 8 8 7 7 6 6 6 6 6 6 6 5 5 4 4 3 4 3 3 2 2 2 2 2 2 2 2 2 2 3 3 4 7 10 8 5 7 8 7 7 6 5 4 5 6 6
11 14 12 10 11 15 13 14 16 14 14 15 13 13 13 13 13 11 12 12 12 11 11 10 10 10 10 11 11 11 11 10 11 10 11 10 10 10 9 9 8 7 7 6 7 5 5 5 5 4 5 5 5 4 3 4 4 3 2 2 2 2 3 2 2 2 2 3 3 3 4 4 9 12 10 8 8 8 8 8 7 6 4 5 7
10 12 11 11 13 13 13 15 16 15 17 17 15 14 12 12 12 13 12 11 11 11 11 11 11 10 9 11 11 12 11 11 10 11 10 9 9 9 9 8 8 8 7 7 7 5 5 5 4 4 4 4 5 4 3 3 3 3 3 2 2 2 2 3 3 3 3 3 3 4 4 4 6 9 13 13 11 10 10 9 9 9 8 7 6
8 7 10 13 12 9 10 10 15 17 18 16 14 12 14 12 12 11 12 11 11 11 12 11 10 10 10 11 11 12 11 10 10 10 10 9 9 9 9 8 7 8 7 7 7 6 6 6 6 5 5 5 5 5 5 4 3 3 3 2 2 2 3 3 2 2 3 3 3 4 4 4 4 4 6 12 14 13 10 9 9 9 9 8 5
10 10 13 15 14 12 9 10 13 17 16 17 16 15 14 12 12 12 12 11 12 11 11 10 10 10 10 10 12 11 12 11 10 10 10 9 9 9 9 8 7 8 7 7 7 7 6 7 7 7 6 5 5 5 5 4 4 4 3 3 3 2 2 3 3 3 2 3 3 3 3 4 4 4 4 4 8 12 12 12 11 10 9 7 6
14 13 13 11 13 14 13 14 13 17 16 17 16 15 14 12 11 12 11 12 11 11 11 11 10 10 10 10 12 11 11 11 10 10 10 10 9 9 9 8 9 8 8 8 7 8 7 7 7 7 8 6 6 6 4 5 4 4 3 2 3 3 3 3 3 3 3 3 3 4 3 3 3 3 3 4 4 7 11 12 12 12 11 9 8
14 13 13 12 13 14 14 16 17 18 18 17 15 13 12 12 12 11 12 11 11 11 10 10 10 10 10 10 11 11 12 11 12 11 10 10 9 8 8 9 9 9 8 8 8 7 8 7 6 6 6 7 7 7 5 5 4 4 3 3 3 3 3 3 4 3 3 3 4 4 3 4 4 3 2 3 3 4 8 11 12 13 13 10 9
12 12 12 12 13 12 12 14 14 14 13 12 13 11 11 10 9 9 10 10 12 10 10 10 11 10 10 10 11 11 12 12 12 11 10 9 9 9 8 9 9 8 8 8 8 7 7 7 7 6 6 7 7 8 7 5 4 4 3 3 3 3 3 3 3 3 4 4 4 4 4 4 3 3 3 3 2 2 3 6 9 11 13 11 9
7 10 11 11 9 9 9 10 11 11 12 11 10 10 10 9 8 8 9 10 9 9 9 9 10 10 10 11 11 11 11 12 12 11 11 9 9 9 8 10 9 8 8 8 7 7 7 7 8 7 5 5 6 7 7 6 5 4 4 3 2 2 2 2 3 3 3 4 4 3 3 4 4 3 3 2 2 2 2 2 2 3 6 11 9
6 6 8 8 9 8 7 7 10 10 10 9 9 9 9 9 10 9 9 10 10 9 9 9 9 10 10 10 10 11 11 11 13 12 12 10 10 9 9 9 9 9 9 9 8 9 10 10 9 10 9 4 2 5 7 7 6 6 5 3 3 2 2 2 2 3 3 4 4 4 4 4 3 3 3 2 2 2 2 2 2 3 4 7 10
6 6 6 7 9 9 7 9 8 10 9 9 9 10 11 10 10 11 11 9 10 10 9 10 9 9 9 10 10 10 11 11 12 12 12 11 10 8 9 9 9 9 9 10 10 10 9 9 8 8 10 9 6 5 7 8 8 6 4 4 3 2 2 2 3 3 3 4 4 4 4 4 4 3 2 2 2 2 2 2 2 2 3 3 5
7 4 5 6 5 7 8 7 7 9 10 10 9 10 10 10 10 11 10 9 9 10 10 9 10 8 9 10 10 10 10 11 11 11 11 11 11 9 9 10 10 10 9 8 8 8 9 9 8 8 7 9 7 8 9 10 7 8 8 5 3 3 3 2 3 4 3 4 4 4 4 4 4 3 3 3 3 3 2 2 2 2 2 3 3
8 6 5 5 5 5 6 7 7 8 9 9 9 9 9 9 9 6 8 7 7 8 8 8 8 9 9 10 10 10 11 10 10 11 10 11 11 10 10 10 11 10 9 9 9 10 10 11 11 10 9 7 6 7 10 11 7 7 6 6 5 5 4 4 4 4 4 4 4 4 3 4 4 4 4 4 4 3 2 2 2 2 2 3 3
8 9 9 7 4 3 4 5 6 7 7 8 8 7 7 7 7 3 4 6 5 6 6 5 6 8 9 9 9 10 11 10 11 11 9 10 11 11 10 10 11 11 11 11 11 11 10 10 11 10 10 10 7 9 9 8 4 11 7 6 5 5 3 8 7 6 5 4 5 5 4 4 5 4 3 3 3 3 3 3 3 3 2 3 3
11 11 10 8 5 7 4 3 4 5 6 7 9 7 5 5 5 2 1 4 2 4 6 8 7 7 8 8 9 9 10 10 10 12 11 11 11 10 11 11 11 11 11 10 11 12 12 12 13 11 13 12 11 9 10 8 8 5 3 6 3 3 6 4 9 6 6 5 6 6 6 5 5 4 3 3 2 3 3 4 3 3 3 3 3
14 12 10 9 9 7 6 4 3 3 4 5 7 7 7 8 7 8 8 8 9 9 10 10 9 10 11 7 8 9 10 10 10 12 12 11 11 11 10 10 11 10 11 10 10 9 11 12 13 13 14 13 11 10 11 9 8 7 6 4 2 2 4 7 8 5 7 6 6 6 6 7 5 4 3 3 3 3 2 3 3 4 4 4 4
16 12 11 11 11 9 7 5 3 2 1 3 6 5 6 7 9 9 9 9 9 8 7 7 8 8 8 10 9 10 12 12 11 11 12 12 12 11 11 11 11 10 10 10 10 12 11 12 11 12 12 12 11 11 13 12 7 7 5 5 3 2 2 9 7 5 5 6 7 7 7 7 6 5 4 4 3 3 3 3 4 4 4 4 4
14 13 12 12 13 11 9 7 5 3 1 2 4 6 6 7 7 8 7 8 7 6 6 7 6 7 9 10 9 9 10 11 10 11 11 12 12 12 12 11 11 11 10 11 11 10 9 9 11 12 10 12 12 12 12 11 13 10 9 6 4 2 3 4 3 7 4 7 7 6 6 7 7 6 6 4 4 4 4 3 4 4 4 4 4
16 16 14 13 12 11 11 9 7 6 4 0 3 5 6 6 6 7 8 7 7 6 3 5 5 5 8 8 9 8 9 11 11 11 12 12 11 12 12 12 11 11 10 10 9 10 12 13 13 12 12 11 11 11 10 11 12 10 9 7 5 5 3 2 2 2 5 7 6 9 8 6 6 7 7 5 4 4 4 3 3 4 4 4 4
15 15 15 13 13 12 13 13 12 8 7 5 3 4 5 5 5 7 8 7 6 6 6 5 5 5 7 8 8 8 8 9 11 12 12 13 12 12 11 13 12 11 10 11 10 10 11 11 12 13 13 13 11 11 12 10 11 9 11 8 9 6 4 4 5 5 1 3 5 8 9 10 9 8 8 7 7 5 5 4 5 5 4 4 4
15 16 15 15 14 14 13 15 13 10 9 7 5 4 4 5 6 7 8 8 7 6 6 6 5 6 7 8 8 8 8 9 9 10 12 13 13 12 11 11 11 10 10 12 12 12 11 11 11 11 12 14 11 11 9 8 9 9 10 9 11 11 11 10 9 8 8 6 4 5 6 8 7 8 8 7 6 6 5 5 6 6 6 5 5
Wind_Direction
208 187 170 159 174 181 181 183 184 182 179 177 175 174 170 166 160 156 155 153 155 157 155 153 156 151 153 151 149 145 141 138 137 136 131 134 134 133 133 129 131 126 118 119 110 92 103 112 112 108 103 97 89 85 84 83 76 71 66 62 57 55 53 52 47 42 44 41 49 55 49 73 98 97 87 81 78 72 56 38 350 74 63 65 61
178 186 174 165 174 181 180 182 185 183 182 182 178 178 175 171 168 163 161 162 161 161 162 164 164 165 163 161 157 156 152 149 145 144 140 140 139 140 140 142 138 138 133 121 112 116 117 117 111 107 99 92 92 91 87 84 80 76 72 70 64 58 55 52 44 40 37 38 42 51 47 60 87 89 87 83 77 70 60 27 17 51 70 71 68
161 173 172 166 173 179 182 182 184 184 184 183 182 182 179 175 173 170 170 169 167 166 168 170 170 170 169 167 166 163 162 157 153 148 147 144 144 142 142 149 149 147 143 131 127 119 115 112 109 106 105 98 91 87 87 85 82 78 76 72 70 65 60 52 47 43 35 31 26 42 90 67 55 87 88 83 78 70 55 46 36 58 69 68 73
157 171 171 160 174 180 181 185 184 184 185 184 183 181 184 181 180 177 174 175 173 170 171 171 170 171 170 171 169 165 162 157 152 149 143 136 129 131 133 135 132 135 138 135 126 117 112 109 114 110 102 93 88 86 82 79 76 75 72 71 69 67 64 56 53 48 36 27 10 345 75 90 90 78 90 85 79 75 68 59 57 66 73 71 68
167 169 171 166 178 182 183 181 186 186 186 187 186 183 184 185 186 183 180 180 176 174 172 172 173 171 171 169 165 161 155 156 150 144 140 138 137 138 138 139 138 143 140 129 124 115 112 116 114 108 100 96 91 88 84 79 73 69 66 65 66 66 63 58 53 48 43 25 355 295 80 84 89 84 94 90 82 82 83 76 68 65 66 72 69
169 170 173 172 178 180 186 179 185 186 189 189 189 188 187 185 188 190 187 189 185 178 179 177 175 172 171 166 162 158 156 152 147 144 138 141 136 139 140 141 138 135 124 118 110 116 118 117 114 105 102 101 100 96 92 88 83 75 67 64 64 63 59 48 43 42 42 2 268 93 83 78 88 111 96 96 92 88 81 76 72 65 62 69 78
173 170 176 177 180 183 186 184 184 187 189 190 191 192 192 191 190 189 192 195 191 183 186 181 176 172 166 162 159 155 152 151 145 139 141 140 138 135 140 137 134 127 122 113 111 113 114 119 108 103 103 102 99 97 94 91 87 81 75 70 67 64 60 48 38 23 342 254 88 89 97 81 93 94 89 84 84 84 77 76 71 66 59 48 37
176 174 178 179 184 173 184 187 186 189 189 189 191 192 192 192 193 191 190 194 194 188 190 185 178 171 163 161 157 154 151 152 149 145 142 139 138 140 136 137 138 136 137 133 129 120 116 114 106 103 100 96 93 92 89 86 85 81 77 74 71 66 59 52 27 19 325 58 50 59 80 94 109 113 97 96 92 79 79 80 76 72 67 60 26
182 178 178 183 186 176 182 190 190 190 190 191 192 193 193 195 193 193 190 193 193 192 194 189 182 170 164 158 154 154 152 149 142 145 144 139 115 169 156 152 148 147 155 147 140 132 127 125 109 105 100 94 90 88 86 83 81 78 77 75 70 64 59 48 28 318 114 56 69 79 51 87 119 138 78 80 86 79 48 53 120 98 79 55 69
180 179 183 184 191 165 183 188 193 188 190 191 189 192 193 195 194 192 192 193 191 192 191 188 180 168 167 157 155 158 154 154 154 155 153 163 181 245 206 187 164 155 151 156 143 147 145 129 110 104 99 95 92 87 85 83 78 77 75 71 66 61 56 46 12 40 49 68 75 75 50 316 118 72 70 75 82 77 72 54 48 46 58 74 74
181 182 182 190 194 163 185 187 188 188 189 190 186 190 192 193 193 194 193 193 193 189 188 186 178 171 168 164 162 162 169 169 163 175 165 185 200 195 214 182 164 163 171 173 162 161 155 131 114 107 101 97 94 90 86 84 82 80 78 72 63 53 41 22 315 76 55 52 57 61 75 291 100 87 75 77 75 82 81 73 80 91 88 81 80
181 183 187 193 177 166 184 185 185 185 183 182 185 188 192 193 194 195 192 188 190 190 184 183 181 182 175 175 176 181 188 182 188 187 203 194 201 201 192 183 160 157 180 175 169 162 150 123 116 111 107 103 98 94 90 88 86 83 80 75 70 60 41 15 28 65 67 64 53 28 44 42 67 95 83 74 74 90 92 97 98 104 100 92 85
182 184 189 196 188 177 191 187 183 183 181 179 186 188 192 189 189 189 193 186 181 188 182 186 188 184 182 178 189 177 185 193 216 224 222 205 204 199 191 189 181 180 172 168 149 144 136 127 120 116 113 109 104 101 97 93 92 88 84 80 74 66 53 11 65 59 59 52 56 40 43 66 71 35 92 82 74 64 73 79 84 90 90 83 81
181 187 192 190 185 173 198 191 185 186 182 181 185 189 185 188 187 186 187 191 186 186 188 193 198 197 204 206 214 197 181 218 181 196 206 198 200 198 195 191 186 181 177 157 144 143 137 130 125 120 116 112 110 106 103 99 94 90 85 79 71 64 39 65 51 66 61 56 48 37 44 55 70 27 78 74 71 64 52 62 78 83 75 66 66
188 191 189 187 185 183 192 195 187 190 183 185 189 190 193 185 188 196 192 198 196 195 201 209 200 206 209 212 232 191 196 206 172 191 200 199 201 202 200 195 193 191 174 154 147 143 139 134 129 124 119 115 111 106 102 98 92 88 82 73 62 49 350 84 60 81 68 55 55 48 54 56 41 47 60 76 67 61 62 63 72 61 67 68 65
198 193 192 190 192 189 188 192 195 192 193 188 192 194 201 199 198 194 200 206 209 204 206 222 202 214 211 221 223 191 198 202 199 199 201 199 198 198 199 192 189 183 168 157 149 144 140 136 128 123 119 116 111 105 100 95 88 82 77 68 56 44 20 336 92 77 80 58 51 55 62 56 20 57 56 55 63 70 61 53 59 61 67 70 68
200 200 199 198 196 196 195 194 193 194 200 200 198 204 206 203 205 215 210 217 212 199 203 212 208 215 224 217 213 198 166 182 190 199 198 199 199 197 191 187 181 176 166 154 149 145 141 134 130 127 123 117 112 107 100 93 87 82 76 69 58 49 27 343 83 64 58 45 38 33 51 50 22 58 58 56 60 62 61 56 59 62 65 64 65
202 201 205 203 201 202 199 200 196 196 200 198 207 211 208 208 205 211 217 219 219 211 209 201 207 219 204 206 192 159 156 166 188 197 199 198 196 192 187 184 179 171 161 156 152 147 141 137 134 131 125 119 114 109 103 97 91 84 76 70 64 52 35 7 70 71 59 42 56 40 58 12 26 53 62 64 61 65 62 57 59 62 65 66 61
201 205 208 206 205 204 206 204 203 202 202 203 203 203 208 207 210 210 210 211 218 219 209 192 195 186 185 185 143 138 144 157 180 195 198 192 189 181 187 180 176 169 163 159 153 146 142 139 135 130 125 120 116 112 108 104 100 95 88 83 76 57 26 59 63 63 59 58 48 50 34 355 47 58 54 61 67 61 55 57 62 62 65 67 66
211 211 210 209 208 208 210 209 208 207 208 205 205 205 199 207 209 205 203 207 213 210 192 180 175 178 172 147 139 135 143 160 173 194 198 188 172 190 182 181 176 169 164 158 151 146 144 140 136 130 124 119 112 107 104 103 101 98 99 97 93 178 94 80 71 65 64 56 30 57 11 10 27 51 55 56 58 60 57 59 64 67 68 68 71
217 218 216 212 213 213 212 213 213 209 208 207 208 204 197 189 203 204 200 199 199 194 183 169 161 162 151 142 141 171 181 192 179 202 174 189 167 182 183 185 177 167 161 157 153 149 146 142 138 132 126 117 106 97 94 97 95 93 91 88 155 87 74 72 67 71 65 59 51 47 3 18 29 43 54 55 57 57 63 67 70 74 69 70 67
212 214 215 216 215 214 213 216 215 209 208 206 203 196 199 189 208 203 201 193 191 187 179 185 174 182 149 149 180 189 197 194 193 200 188 184 163 173 194 184 175 166 161 157 153 152 147 142 136 128 120 114 114 115 98 80 78 85 78 14 76 75 75 75 72 75 65 72 53 17 359 13 33 49 61 66 65 67 73 76 81 79 81 74 72
215 214 213 213 214 217 218 219 217 208 208 208 200 204 205 202 206 206 204 197 194 188 195 187 186 191 178 182 197 200 197 189 194 181 196 169 173 172 186 181 169 157 162 157 157 153 148 141 133 125 119 117 123 116 120 125 107 115 155 99 78 72 78 80 90 86 77 50 80 2 5 9 26 62 82 83 86 88 88 89 87 91 87 83 82
213 207 208 205 209 214 215 217 214 209 203 208 205 205 206 206 206 207 209 206 202 190 202 189 191 186 172 184 191 190 181 191 103 111 116 164 152 176 178 153 148 153 154 155 154 151 143 131 123 122 128 153 137 131 132 139 142 137 102 99 96 97 93 97 90 97 101 65 66 356 1 16 15 56 86 97 99 103 102 100 100 97 90 88 82
207 205 205 203 206 210 211 213 210 213 205 206 203 205 204 205 205 207 208 205 207 199 202 185 184 175 173 186 190 169 177 191 174 175 187 184 181 182 178 178 174 173 164 167 165 148 148 145 138 157 160 154 151 145 147 142 140 137 112 99 105 102 99 90 93 102 102 96 58 353 354 18 18 41 103 110 110 112 114 114 111 104 99 90 86
186 203 206 204 205 207 207 207 208 212 207 211 205 204 201 204 202 202 202 206 206 202 196 185 181 177 177 184 168 168 181 188 180 183 189 187 183 184 184 185 179 172 179 169 162 162 158 156 159 166 161 158 152 149 149 145 143 137 123 109 112 117 107 98 102 96 100 95 75 353 355 0 17 56 110 116 118 118 117 115 109 103 106 106 87
200 211 204 207 204 204 205 204 205 207 212 213 209 200 202 205 205 201 199 205 204 194 191 190 187 178 177 170 176 182 187 190 182 185 187 185 185 183 181 179 176 173 182 175 163 163 166 160 164 161 154 144 137 133 126 116 117 121 116 115 110 118 120 117 116 116 104 104 75 356 353 355 358 84 105 125 124 124 120 123 122 120 109 96 90
214 212 205 204 200 200 199 200 205 205 207 210 207 204 204 203 206 200 202 202 196 195 195 193 180 176 178 180 184 186 188 191 187 186 187 187 188 184 182 178 179 177 178 176 165 169 169 164 158 149 148 146 140 138 133 129 119 118 119 117 119 121 118 117 110 118 131 131 118 24 344 359 5 49 98 107 118 126 128 125 128 122 121 115 107
226 214 205 204 203 195 195 200 201 202 200 201 208 208 204 203 203 202 202 199 199 199 196 184 179 182 181 178 182 187 191 192 188 187 185 188 184 178 177 180 179 175 175 176 174 172 172 165 160 160 158 153 149 145 138 133 138 127 128 127 132 119 123 129 121 124 135 139 131 63 353 8 28 45 75 92 110 119 132 132 133 131 134 125 104
228 222 210 210 203 195 197 199 199 200 200 199 206 210 204 201 203 201 201 196 201 200 190 185 188 183 183 183 184 190 192 191 187 187 185 186 182 176 179 180 180 175 179 181 179 178 173 167 164 159 156 152 152 141 148 137 129 129 137 139 138 139 134 136 141 149 140 127 116 112 25 3 23 60 60 81 85 94 96 107 113 125 126 117 117
230 229 222 213 204 199 204 202 201 198 194 199 203 207 204 204 202 200 199 199 198 195 190 192 190 189 187 182 185 192 191 191 187 186 185 184 180 179 185 178 181 179 182 181 175 181 171 172 167 162 159 156 146 144 155 143 141 135 129 146 142 141 135 135 143 143 140 128 122 109 82 32 16 17 73 69 70 72 71 74 76 93 116 130 130
221 228 221 212 202 205 202 201 202 198 197 201 200 203 203 203 200 200 202 202 196 196 195 194 192 191 185 179 188 191 192 191 187 183 186 183 183 184 184 180 186 177 182 177 171 174 168 149 142 138 140 145 140 146 148 152 149 143 143 146 158 152 147 144 148 147 127 120 126 127 117 88 45 25 35 73 69 67 70 68 66 64 81 103 94
224 229 221 210 211 204 204 204 200 200 203 205 204 206 205 200 199 201 201 197 194 195 198 196 194 191 184 183 190 191 192 192 188 183 183 183 183 181 184 185 183 176 176 167 159 158 153 148 139 141 141 139 142 138 135 150 148 146 158 156 161 155 146 155 147 147 140 141 133 129 127 119 100 63 40 38 52 57 58 60 60 57 61 77 77
242 227 216 219 211 202 200 200 199 202 203 206 208 205 206 203 202 201 202 194 196 198 201 199 193 190 185 186 189 191 191 195 187 183 185 185 182 185 185 184 182 168 163 159 168 170 167 158 152 158 155 159 155 153 162 165 154 151 158 157 173 159 155 153 147 138 150 142 136 130 132 137 132 113 84 55 37 34 47 53 57 58 58 64 82
228 227 216 221 211 203 192 201 197 205 201 205 206 208 205 204 199 200 200 193 198 202 202 199 194 192 187 189 191 191 191 193 186 180 186 188 184 186 187 184 171 165 167 174 174 172 168 165 162 164 159 163 158 157 171 167 160 159 155 165 161 157 161 138 134 137 146 136 137 131 130 131 133 130 129 115 67 34 36 45 47 47 50 52 56
227 224 224 217 217 209 197 204 198 204 204 205 206 206 205 204 202 201 202 192 197 202 201 200 197 193 191 190 189 189 189 191 184 184 187 192 189 188 185 176 162 170 175 172 175 172 169 166 171 166 159 165 161 164 175 164 159 148 146 152 143 163 151 146 145 150 146 156 143 139 133 119 126 109 111 113 102 62 43 49 47 43 43 44 41
229 225 220 213 214 210 203 205 206 204 207 205 206 206 206 206 205 203 203 194 200 201 201 199 197 196 192 191 185 187 188 189 188 188 192 190 190 187 181 170 168 177 175 172 178 175 167 164 164 171 169 161 168 165 170 164 145 132 128 132 145 165 160 157 159 147 153 152 144 136 120 105 95 110 104 94 109 108 63 58 56 45 37 44 44
231 227 224 220 219 211 203 205 209 206 206 209 207 207 209 210 208 206 204 205 205 205 203 200 201 197 192 194 182 185 189 190 189 188 195 190 190 188 176 166 172 178 173 173 181 171 170 171 159 164 164 164 173 172 170 153 132 133 126 132 152 168 153 155 141 150 160 151 148 138 131 128 119 99 91 82 83 94 109 82 74 61 42 42 49
242 234 228 228 225 215 208 202 203 201 202 203 202 203 208 212 214 211 209 212 209 209 207 206 204 198 198 192 180 186 189 189 187 186 193 189 190 188 172 169 175 178 173 175 171 166 167 175 162 156 158 170 176 175 165 139 125 115 118 118 120 125 145 135 151 168 155 153 132 124 126 129 119 106 103 93 83 85 76 96 97 90 65 44 50
267 254 241 228 228 227 215 208 201 201 197 196 191 196 200 205 206 208 218 215 212 210 211 213 204 205 199 191 186 188 189 188 187 187 192 190 190 187 175 168 179 178 176 178 175 179 176 168 167 159 160 150 162 152 139 135 120 108 105 97 89 94 120 154 167 158 161 148 147 153 143 133 130 116 105 108 100 91 99 94 95 97 99 72 57
277 269 255 234 227 225 213 212 199 199 198 195 197 194 197 202 209 214 219 211 212 211 212 212 212 209 200 194 191 191 191 188 189 186 193 191 191 180 170 172 180 182 186 189 181 174 171 168 158 160 162 165 174 163 156 144 135 123 113 116 114 109 120 172 170 170 170 165 162 161 150 150 141 139 136 117 114 113 122 115 107 103 104 118 99
333 317 273 268 251 233 228 217 197 198 203 201 197 198 202 202 201 209 209 209 204 205 214 210 211 206 201 196 199 195 194 191 190 191 193 190 187 176 175 176 182 188 192 187 170 158 158 164 157 158 176 175 171 175 167 161 175 169 158 154 152 155 162 186 181 173 179 174 174 164 165 158 151 149 151 141 131 133 122 127 113 106 109 112 112
332 334 340 319 292 257 240 224 207 200 205 204 200 202 202 205 205 211 203 211 216 219 218 219 208 207 202 199 199 197 198 196 190 192 194 192 189 180 183 179 184 183 183 182 175 172 175 172 172 170 164 182 174 180 183 200 183 173 160 145 176 174 175 206 195 193 184 180 180 173 167 153 153 158 157 153 150 138 123 111 116 114 122 124 121
10 11 3 348 322 280 258 237 224 208 207 204 204 204 201 194 190 189 182 211 226 207 214 217 211 210 213 205 206 205 198 198 193 192 195 195 192 187 180 182 187 187 187 183 180 181 174 175 177 179 167 165 180 188 204 211 224 152 172 217 168 202 184 211 188 182 180 182 196 184 173 165 160 165 169 157 147 146 146 132 132 136 132 131 128
14 9 357 352 342 330 309 263 243 223 217 207 198 197 175 174 183 158 160 210 250 229 220 230 223 219 220 212 213 205 203 201 196 195 198 198 197 192 189 189 187 189 190 187 183 186 180 180 176 175 180 181 179 183 200 209 230 250 212 142 137 216 235 131 162 174 175 189 201 196 184 179 178 182 174 156 144 143 149 153 148 141 148 145 139
10 1 356 354 348 344 340 327 276 238 219 215 201 203 209 205 194 195 208 214 223 216 217 215 207 209 211 213 208 204 203 205 203 197 198 199 200 197 192 189 190 189 194 194 184 176 180 180 183 184 187 194 179 172 187 208 224 237 260 309 331 233 180 144 164 187 173 208 194 198 197 199 194 191 193 172 176 166 155 159 162 156 160 160 155
3 352 359 3 1 357 352 346 332 307 225 215 190 196 207 210 210 210 213 213 220 224 218 211 212 208 202 204 203 198 204 206 206 202 200 201 201 198 196 194 193 194 193 193 188 186 183 185 182 192 193 188 184 185 184 189 199 247 237 241 271 234 277 144 199 127 180 193 212 202 207 206 207 213 204 201 182 190 166 174 167 167 163 168 161
360 1 5 3 2 3 358 1 357 345 4 210 200 209 217 214 214 217 222 228 229 239 206 209 213 205 199 201 200 201 199 205 208 205 206 204 203 201 198 197 195 196 191 199 196 188 182 185 187 193 191 195 193 194 188 180 185 202 198 212 234 247 262 295 260 202 208 168 192 205 217 199 210 218 219 206 196 197 182 176 173 173 174 168 171
14 12 7 3 360 -0 6 9 12 3 0 267 227 210 222 230 223 223 230 234 239 241 243 207 218 205 206 209 205 201 196 200 206 206 205 207 205 205 199 199 198 197 192 201 201 191 189 183 183 189 194 197 202 207 196 188 193 192 163 205 203 206 195 246 281 263 234 215 181 180 193 187 215 223 214 201 192 180 187 176 172 181 172 167 170
17 15 15 13 10 7 8 11 17 10 7 344 291 246 226 233 236 235 238 241 235 239 237 234 219 211 212 215 210 207 203 200 203 206 202 205 208 207 206 202 201 197 191 200 199 191 194 192 191 193 194 196 199 202 209 197 192 197 182 173 184 176 195 207 216 201 262 264 237 185 178 174 193 206 194 191 183 182 183 177 174 183 180 175 169
26 23 20 18 14 16 11 21 19 8 4 355 335 304 270 249 248 248 248 248 250 252 248 235 226 214 218 214 211 211 209 209 206 208 207 203 204 204 206 205 205 201 194 199 201 197 198 196 196 199 200 200 199 201 211 211 191 197 184 189 191 183 187 191 192 194 199 193 210 186 174 189 192 162 190 177 172 179 179 178 182 178 181 173 171